Location: Grand Mazuras
(45.9128°N, 1.7636°E)
Time: 17:14:42
(UTC+00:00)

SL-08 ROCKET BODY - Pass Details

Date: 18 April 2021
Orbit: 896 x 964 km, 82.9° (Epoch: 11 May)

Event Time Altitude Azimuth Distance (km) Brightness Sun altitude
Rises 22:19:28 0° 351° (N) 3,626 8.6 -29.2°
Reaches altitude 10° 22:21:59 10° 351° (N) 2,668 7.6 -29.4°
Enters shadow 22:27:51 83° 336° (NNW) 942 4.3 -29.9°
